Погода Варандей

Погода Варандей : погода сейчас, прогноз погоды и архив. Всё, что Вы хотите узнать о погоде Варандей!

Хотите узнать прогноз погоды Варандей? Тогда Вам сюда: Погода Варандей

Поиск расширенной информации на нашем сайте:

Другие новости

Новости СМИ2

Главная страница сайта

Новости сайта

03.07.2017

Напоминаем, что на нашем специализированном сайте Метеоцентр.Азия вы можете получить высокодетализированные автоматические прогнозы погоды по пунктам России, СНГ и мира в авиационном формате (включающие направление и скорость ветра, видимость, явления погоды, количество и форму облачности, нижнюю и верхнюю границу облачности).


Погода Варандей - сегодня

Время (UTC), дата Ветер
(°,м/с) 
Видим.   Явления Облачность Т
(°С)
Тd
(°С)
f(%) Тe
(°С)
Pmin
(гПа)
dP
(гПа)
Po
(мм)
O2
(г/м3)
Тmin Tmax R s Состояние
почвы
06 16.01.18 260 (З) 10{14}  10 км    9/9 300 м 
[Sc]
-1.6 -2.1 96 -7  1015.4  0.8  761  309           
09 16.01.18 260 (З) 10{14}  10 км    9/9 330 м 
[Sc]
-1.8 -2.6 94 -7  1016.4  762  309           
12 16.01.18 250 (З) 10{14}  10 км    9/9 360 м 
[Sc]
-2.1 -3 94 -7  1017.3  0.9  762  310           
15 16.01.18 270 (З) 7{13}  10 км  слаб. снег  10/10 300 м 
[Frnb|Ns]
-2.8 -3.5 95 -7  1017.6  0.3  763  311    -1.5  0.0     
18 16.01.18 230 (ЮЗ) 12{15}  4000 м  слаб. снег  10/10 200 м 
[Frnb|Ns]
-5.9 -6 99 -13  1018  0.4  763  315           
21 16.01.18 240 (ЮЗ) 9{15}  10 км  слаб. снег  10/10 2000 м 
[Ns]
-7.6 -7.7 99 -14  1018.7  0.7  763  317           
00 17.01.18 240 (ЮЗ) 7{12}  10 км  слаб. снег  10/10 2000 м 
[Ns]
-8.6 -8.8 98 -14  1018.8  0.1  763  319           
03 17.01.18 220 (ЮЗ) 10 км  {снег}  10/10 2000 м 
[Ns]
-9.4 -9.7 98 -15  1018.6  -0.2  763  320  -9.4    0.2  63  неравномерный
сухой снег
100% 
06 17.01.18 240 (ЮЗ) 4000 м  дымка{снег}  9/9 330 м 
[Sc]
-7.8 -8 98 -13  1019  0.4  764  318  -9.6         
09 17.01.18 210 (ЮЗ) 10 км    9/9 330 м 
[Sc]
-9.3 -9.7 97 -15  1020.3  1.3  765  320           
12 17.01.18 200 (Ю) 10 км    9/9 360 м 
[Sc]
-9.5 -10 96 -15  1021.4  1.1  765  321           
15 17.01.18 200 (Ю) 20000 м    9/9 450 м 
[Sc]
-8.8 -9.2 97 -14  1022.2  0.8  766  320    -7.7       
18 17.01.18 210 (ЮЗ) 20000 м  слаб. снег  10/10 2000 м 
[Ns]
-7.4 -7.9 96 -13  1023.3  1.1  767  318           
21 17.01.18 220 (ЮЗ) 10 км  слаб. снег  10/10 2000 м 
[Ns]
-8.1 -9 93 -13  1024.7  1.4  768  320           
00 18.01.18 210 (ЮЗ) 20000 м  {снег}  10/10 2000 м 
[Ns]
-9.4 -10.4 92 -13  1026.2  1.5  769  322           
03 18.01.18 190 (Ю) 20000 м    8/8 2000 м средняя 
[As trans]
-10.9 -11.8 93 -15  1027  0.8  770  324  -11.4    0.0  61  неравномерный
сухой снег
100% 
06 18.01.18 190 (Ю) 20000 м    9/9 420 м 
[Sc]
-10.1 -11.2 92 -14  1027.8  0.8  770  323           
09 18.01.18 140 (ЮВ) 10 км    10/6 300 м средняя 
[Sc|As op]
-10.5 -11.8 90 -14  1029.1  1.3  771  324           
12 18.01.18 090 (В) 10 км  слаб. снег  10/10 2000 м 
[Ac As]
-11 -12.5 89 -14  1029.5  0.4  771  325           
15 18.01.18 110 (В) 10 км  слаб. снег  10/10 2000 м 
[Ns]
-11.5 -12.5 92 -16  1029.8  0.3  772  326    -9.6  0.0     
18 18.01.18 120 (ЮВ) 20000 м  {снег}  4/4 2000 м средняя 
[As op]
-12.9 -14.2 90 -17  1030.2  0.4  772  328           
21 18.01.18 110 (В) 20000 м    10/10 2000 м 
[Ns]
-14.2 -15.3 91 -19  1030.9  0.7  773  330           
00 19.01.18 140 (ЮВ) 20000 м    10/10 2000 м 
[Ns]
-12.9 -13.9 92 -18  1031.5  0.6  773  328           
03 19.01.18 110 (В) 20000 м    ясно 
-15.1 -16.1 92 -20  1031.7  0.2  773  331  -15.1    0.0  61  неравномерный
сухой снег
100% 
06 19.01.18 100 (В) 20000 м    3/0 верхняя 
[Cs]
-16.9 -18.6 87 -22  1032.5  0.8  774  334  -16.9         
Время (UTC), дата Ветер
(°,м/с) 
Видим.   Явления Облачность Т
(°С)
Тd
(°С)
f(%) Тe
(°С)
Pmin
(гПа)
dP
(гПа)
Po
(мм)
O2
(г/м3)
Тmin Tmax R s Состояние
почвы

Для получения пояснительной информации подведите курсор к названию столбца.

ПОГОДА Варандей - архив

Всё, что Вы хотите узнать о погоде Варандей - удобно и подробно!

Выберите нужную дату (начиная с 1 января 2015* года) и нажмите кнопку "Найти".
Будут отображены архивные сводки погоды по пункту Варандей, начиная с указанной даты.


Отображать данные в формате CSV (для использования в таблицах Excel)


Внимание! Наш архив погоды предназначен исключительно для личного некоммерческого использования в познавательных целях. Если Вам необходимы официальные справки о состоянии погоды (для производственных, юридических, коммерческих и т.п. целей), обращайтесь в органы Росгидромета.

*Примечание: данная дата относится к архиву по метеостанциям СССР (Россия, СНГ, Балтия).
Архив по метеостанциям Зарубежной Европы и Азии (кроме Китая) хранится 10 дней, по другим регионам земного шара (Китай, Африка, Америка, Австралия, Океания) - 1 день.

Варандей - район местоположения метеостанции


Название, широта, долгота, высота метеостанции:
Варандей 68.8°ш. 58°д. 5 м над ур. моря [Российская Федерация]

Дополнительная информация

В oтличие oт бoльшинства пoгoдных сайтoв мы публикуем пoдрoбную метеoинфoрмацию в детальнoм прoфессиoнальнoм фoрмате.

Характеристики температуры и влажнoсти вoздуха измеряются на высoте 2 м в тени вдали oт зданий и деревьев.
Скoрoсть ветра измеряется на высoте 10 м (на урoвне рoста челoвека скoрoсть ветра ниже в 1.5-2 раза). Если метеoстанция нахoдится в гoрoде или в лесу, тo скoрoсть ветра занижена на 2-4 м/с пo сравнению с oткрытым местoм. Скoрoсть ветра над акватoриями крупных рек и oзёр, а также на вершинах хoлмoв на 2-5 м/с выше, чем в oбычных услoвиях.
Атмoсфернoе давление в разных тoчках местнoсти мoжет значительнo oтличаться oт давления на метеoстанции, в зависимoсти oт услoвий рельефа (при пoдъёме на 10 м давление пoнижается примернo на 1 мм рт.ст.).